User: anonymous   Login
Location: ???????
(55.4362°N, 38.1183°E)
Time: 07:12:56
(UTC+00:00)
Language:

FENGYUN 1C DEB - Orbit

View from above orbital plane
View from above orbital plane
View from above satellite
View from above satellite

Ground track
Ground track

The orbit data is extracted from the following two-line orbital elements,

1 30454U 99025AFR 22028.81376201  .00001343  00000-0  81735-3 0  9991
2 30454  98.1506 129.9274 0216728 269.3729 217.2358 13.96664559761203
Epoch (UTC): 28 January 2022 19:31:49
Eccentricity: 0.0216728
inclination: 98.1506°
perigee height: 747 km
apogee height: 1063 km
right ascension of ascending node: 129.9274°
argument of perigee: 269.3729°
revolutions per day: 13.96664559
mean anomaly at epoch: 217.2358°
orbit number at epoch: 76120

The dashed part of the orbit path shows where the satellite is in the earth's shadow,  

DLR